Crystal River, FL

6:46 AM EST on December 07, 2019 (GMT -0500)
Crystal River

Weather History for KCGC - October, 2019

Change the Weather History Date:

Friday, October 25, 2019

  Actual Average (KBKV) Record (KBKV)
Temperature  
Mean Temperature 80 °F -  
Max Temperature 87 °F 80 °F 89 °F (2010)
Min Temperature 73 °F 56 °F 36 °F (2006)
Cooling Degree Days 15    
Growing Degree Days 30 (Base 50)    
Moisture  
Dew Point 71 °F    
Average Humidity 81    
Maximum Humidity 94    
Minimum Humidity 58    
Precipitation  
Precipitation 0.00 in - - ()
Sea Level Pressure  
Sea Level Pressure 30.05 in    
Wind  
Wind Speed 6 mph (East)    
Max Wind Speed 14 mph    
Max Gust Speed 20 mph    
Visibility 10 miles    
Events Rain    
Averages and records for this station are not official NWS values.
T = Trace of Precipitation, MM = Missing Value Source: NWS Daily Summary

Daily Weather History Graph

Daily Weather History Graph

Search for Another Location

Airport or City:

Astronomy

Oct. 25, 2019 Rise Set
Actual Time 7:37 AM EDT 6:50 PM EDT
Civil Twilight 7:13 AM EDT 7:14 PM EDT
Nautical Twilight 6:45 AM EDT 7:42 PM EDT
Astronomical Twilight 6:18 AM EDT 8:10 PM EDT
Moon 4:41 AM EDT (10/25) 5:33 PM EDT (10/25)
Length of Visible Light 12h 01m
Length of Day
11h 13m
Waning Crescent, 9% of the Moon is Illuminated
Oct 25
Waning Crescent
Oct 27
New
Nov 4
First Quarter
Nov 12
Full
Nov 19
Last Quarter

Hourly Weather History & Observations

Time (EDT) Temp. Heat Index Dew Point Humidity Pressure Visibility Wind Dir Wind Speed Gust Speed Precip Events Conditions
12:15 AM 77.0 °F - 71.6 °F 83% 30.12 in 10.0 mi East 5.8 mph - N/A   Clear
12:35 AM 75.2 °F - 71.6 °F 89% 30.12 in 10.0 mi East 4.6 mph - N/A   Clear
12:55 AM 75.2 °F - 71.6 °F 89% 30.12 in 10.0 mi East 4.6 mph - N/A   Clear
1:35 AM 73.4 °F - 71.6 °F 94% 30.11 in 10.0 mi East 4.6 mph - N/A   Clear
1:55 AM 73.4 °F - 71.6 °F 94% 30.10 in 10.0 mi East 5.8 mph - N/A   Clear
2:15 AM 73.4 °F - 71.6 °F 94% 30.09 in 10.0 mi East 5.8 mph - N/A   Clear
2:35 AM 73.4 °F - 71.6 °F 94% 30.08 in 10.0 mi East 6.9 mph - N/A   Clear
2:55 AM 73.4 °F - 71.6 °F 94% 30.08 in 10.0 mi East 5.8 mph - N/A   Clear
3:15 AM 73.4 °F - 71.6 °F 94% 30.08 in 10.0 mi East 4.6 mph - N/A   Clear
3:35 AM 73.4 °F - 71.6 °F 94% 30.08 in 10.0 mi East 4.6 mph - N/A   Clear
3:55 AM 73.4 °F - 71.6 °F 94% 30.07 in 10.0 mi East 5.8 mph - N/A   Clear
4:15 AM 73.4 °F - 71.6 °F 94% 30.06 in 10.0 mi East 4.6 mph - N/A   Clear
4:35 AM 73.4 °F - 71.6 °F 94% 30.06 in 10.0 mi East 4.6 mph - N/A   Clear
4:55 AM 73.4 °F - 71.6 °F 94% 30.06 in 10.0 mi East 4.6 mph - N/A   Clear
5:15 AM 73.4 °F - 71.6 °F 94% 30.07 in 10.0 mi East 4.6 mph - N/A   Clear
5:35 AM 73.4 °F - 71.6 °F 94% 30.07 in 10.0 mi ENE 4.6 mph - N/A   Clear
5:55 AM 73.4 °F - 71.6 °F 94% 30.07 in 10.0 mi East 5.8 mph - N/A   Clear
6:15 AM 73.4 °F - 71.6 °F 94% 30.07 in 10.0 mi East 5.8 mph - N/A   Clear
6:35 AM 73.4 °F - 71.6 °F 94% 30.07 in 10.0 mi ENE 5.8 mph - N/A   Clear
6:55 AM 73.4 °F - 71.6 °F 94% 30.07 in 10.0 mi East 4.6 mph - N/A   Clear
7:15 AM 73.4 °F - 71.6 °F 94% 30.07 in 10.0 mi East 3.5 mph - N/A   Clear
7:35 AM 73.4 °F - 71.6 °F 94% 30.07 in 10.0 mi ENE 4.6 mph - N/A   Clear
7:55 AM 73.4 °F - 71.6 °F 94% 30.08 in 10.0 mi East 3.5 mph - N/A   Clear
8:15 AM 73.4 °F - 71.6 °F 94% 30.08 in 10.0 mi East 4.6 mph - N/A   Clear
8:35 AM 75.2 °F - 71.6 °F 89% 30.09 in 10.0 mi East 5.8 mph - N/A   Clear
8:55 AM 77.0 °F - 71.6 °F 83% 30.10 in 10.0 mi East 5.8 mph - N/A   Clear
9:15 AM 78.8 °F - 71.6 °F 78% 30.10 in 10.0 mi East 4.6 mph - N/A   Clear
9:35 AM 78.8 °F - 71.6 °F 78% 30.10 in 10.0 mi East 9.2 mph 17.3 mph N/A   Clear
10:15 AM 80.6 °F 84.6 °F 71.6 °F 74% 30.10 in 10.0 mi East 9.2 mph 17.3 mph N/A   Scattered Clouds
10:35 AM 82.4 °F 87.2 °F 71.6 °F 70% 30.10 in 10.0 mi East 10.4 mph - N/A   Scattered Clouds
10:55 AM 82.4 °F 87.2 °F 71.6 °F 70% 30.10 in 10.0 mi ESE 10.4 mph - N/A   Mostly Cloudy
11:15 AM 82.4 °F 87.2 °F 71.6 °F 70% 30.10 in 10.0 mi East 9.2 mph - N/A   Mostly Cloudy
11:35 AM 82.4 °F 87.2 °F 71.6 °F 70% 30.09 in 10.0 mi East 11.5 mph 18.4 mph N/A   Overcast
11:55 AM 84.2 °F 89.6 °F 71.6 °F 66% 30.09 in 10.0 mi ESE 10.4 mph - N/A   Mostly Cloudy
12:15 PM 86.0 °F 91.8 °F 71.6 °F 62% 30.08 in 10.0 mi ESE 9.2 mph 16.1 mph N/A   Mostly Cloudy
12:35 PM 87.8 °F 93.8 °F 71.6 °F 58% 30.07 in 10.0 mi East 9.2 mph 16.1 mph N/A   Mostly Cloudy
12:55 PM 86.0 °F 91.8 °F 71.6 °F 62% 30.06 in 10.0 mi East 9.2 mph - N/A   Overcast
1:15 PM 86.0 °F 91.8 °F 71.6 °F 62% 30.06 in 10.0 mi East 12.7 mph 16.1 mph N/A   Overcast
1:35 PM 86.0 °F 91.8 °F 71.6 °F 62% 30.04 in 10.0 mi ESE 11.5 mph 16.1 mph N/A   Overcast
1:55 PM 84.2 °F 89.6 °F 71.6 °F 66% 30.03 in 10.0 mi East 4.6 mph - N/A   Overcast
2:15 PM 84.2 °F 89.6 °F 71.6 °F 66% 30.02 in 10.0 mi East 8.1 mph 16.1 mph N/A   Mostly Cloudy
2:35 PM 86.0 °F 91.8 °F 71.6 °F 62% 30.01 in 10.0 mi ESE 10.4 mph 18.4 mph N/A Rain Light Rain
2:55 PM 80.6 °F 85.4 °F 73.4 °F 79% 30.01 in 10.0 mi SSE 3.5 mph - N/A   Overcast
3:15 PM 84.2 °F 90.9 °F 73.4 °F 70% 30.01 in 10.0 mi SE 5.8 mph - N/A   Mostly Cloudy
3:35 PM 82.4 °F 87.2 °F 71.6 °F 70% 30.01 in 10.0 mi East 11.5 mph 18.4 mph N/A Rain Rain
3:55 PM 78.8 °F - 71.6 °F 78% 30.01 in 7.0 mi ESE 8.1 mph 19.6 mph N/A Rain Light Rain
4:15 PM 80.6 °F 84.6 °F 71.6 °F 74% 30.01 in 10.0 mi East 9.2 mph - N/A   Mostly Cloudy
4:35 PM 82.4 °F 87.2 °F 71.6 °F 70% 30.00 in 10.0 mi East 13.8 mph 17.3 mph N/A   Clear
4:55 PM 80.6 °F 84.6 °F 71.6 °F 74% 30.00 in 10.0 mi East 11.5 mph 18.4 mph N/A   Clear
5:15 PM 80.6 °F 83.9 °F 69.8 °F 70% 29.99 in 10.0 mi East 9.2 mph - N/A   Clear
5:35 PM 80.6 °F 84.6 °F 71.6 °F 74% 29.99 in 10.0 mi East 11.5 mph 16.1 mph N/A   Clear
5:55 PM 80.6 °F 84.6 °F 71.6 °F 74% 29.99 in 10.0 mi East 10.4 mph - N/A   Clear
6:15 PM 80.6 °F 84.6 °F 71.6 °F 74% 30.00 in 10.0 mi East 11.5 mph 16.1 mph N/A   Scattered Clouds
6:35 PM 78.8 °F - 71.6 °F 78% 30.00 in 10.0 mi East 8.1 mph 17.3 mph N/A   Clear
6:55 PM 78.8 °F - 71.6 °F 78% 30.00 in 10.0 mi East 6.9 mph - N/A   Clear
7:15 PM 77.0 °F - 71.6 °F 83% 30.01 in 10.0 mi East 3.5 mph - N/A   Clear
7:35 PM 77.0 °F - 71.6 °F 83% 30.02 in 10.0 mi East 4.6 mph - N/A   Scattered Clouds
7:55 PM 77.0 °F - 71.6 °F 83% 30.03 in 10.0 mi East 5.8 mph - N/A   Scattered Clouds
8:15 PM 77.0 °F - 69.8 °F 78% 30.03 in 10.0 mi East 5.8 mph - N/A   Clear
8:35 PM 77.0 °F - 69.8 °F 78% 30.03 in 10.0 mi East 5.8 mph - N/A   Clear
8:55 PM 75.2 °F - 69.8 °F 83% 30.03 in 10.0 mi East 5.8 mph - N/A   Mostly Cloudy
9:15 PM 77.0 °F - 69.8 °F 78% 30.03 in 10.0 mi East 4.6 mph - N/A   Overcast
9:35 PM 77.0 °F - 69.8 °F 78% 30.03 in 10.0 mi East 5.8 mph - N/A   Mostly Cloudy
9:55 PM 77.0 °F - 69.8 °F 78% 30.03 in 10.0 mi East 6.9 mph - N/A   Mostly Cloudy
10:35 PM 77.0 °F - 71.6 °F 83% 30.03 in 10.0 mi ESE 9.2 mph - N/A   Scattered Clouds
10:55 PM 77.0 °F - 71.6 °F 83% 30.04 in 10.0 mi East 10.4 mph - N/A   Scattered Clouds
11:15 PM 77.0 °F - 71.6 °F 83% 30.03 in 10.0 mi East 6.9 mph - N/A   Scattered Clouds
11:35 PM 77.0 °F - 71.6 °F 83% 30.03 in 10.0 mi ESE 6.9 mph - N/A   Scattered Clouds
11:55 PM 77.0 °F - 71.6 °F 83% 30.03 in 10.0 mi ESE 6.9 mph - N/A   Mostly Cloudy